This is the latest recevied weather packets stored in our database for station/object CT2HRB-13. If no packets are shown the sender has not sent any weather packets the latest 1 day(s).
| Time | Temp. | Humidity | Pressure | Rain* | Wind** | Luminosity | Snow |
|---|---|---|---|---|---|---|---|
| 1778052902 | 15.56° C | 71% | 1014.2 hPa | - | - | - | - |
| 1778052302 | 16.11° C | 72% | 1013.8 hPa | - | - | - | - |
| 1778052002 | 15.56° C | 73% | 1014 hPa | - | - | - | - |
| 1778050502 | 15° C | 76% | 1014.1 hPa | - | - | - | - |
| 1778049602 | 14.44° C | 80% | 1014.1 hPa | - | - | - | - |
| 1778047802 | 12.22° C | 84% | 1014 hPa | - | - | - | - |
| 1778046902 | 11.67° C | 84% | 1013.8 hPa | - | - | - | - |
| 1778046002 | 11.67° C | 84% | 1013.9 hPa | - | - | - | - |
| 1778045101 | 11.67° C | 84% | 1014 hPa | - | - | - | - |
| 1778044502 | 11.67° C | 85% | 1013.9 hPa | - | - | - | - |
| 1778043901 | 11.67° C | 85% | 1013.9 hPa | - | - | - | - |
| 1778043602 | 11.67° C | 85% | 1013.9 hPa | - | - | - | - |
| 1778043002 | 11.67° C | 84% | 1013.9 hPa | - | - | - | - |
| 1778042403 | 11.67° C | 84% | 1013.7 hPa | - | - | - | - |
| 1778042102 | 11.67° C | 84% | 1013.9 hPa | - | - | - | - |
| 1778040602 | 11.67° C | 84% | 1014.1 hPa | - | - | - | - |
| 1778039702 | 11.67° C | 83% | 1014.1 hPa | - | - | - | - |
| 1778039402 | 11.67° C | 83% | 1014.1 hPa | - | - | - | - |
| 1778038502 | 11.67° C | 83% | 1014.2 hPa | - | - | - | - |
| 1778037602 | 11.67° C | 83% | 1014.3 hPa | - | - | - | - |
| 1778036701 | 12.22° C | 83% | 1014.3 hPa | - | - | - | - |
| 1778035502 | 12.22° C | 83% | 1014.6 hPa | - | - | - | - |
| 1778035202 | 12.22° C | 83% | 1014.5 hPa | - | - | - | - |
| 1778034602 | 12.22° C | 83% | 1014.5 hPa | - | - | - | - |
| 1778034302 | 12.22° C | 83% | 1014.7 hPa | - | - | - | - |
* Rain since midnight (hover to see other rain measurements)
** Current wind speed in m/s (hover to see current wind gust speed)